Vorticity
2 3 3 3 2 3 2 2 2 2 2 3 2 3 3 2 3 3 3 4 4 5 5 5 6 6 7 6 8 9 9 9 8 8 9 9 7 5 5 5 4 4 4
1 2 3 3 2 3 3 2 2 2 2 3 3 3 3 2 2 2 2 3 3 3 4 4 4 4 5 5 6 7 8 9 9 9 9 8 8 5 5 4 4 4 4
-0 0 2 3 3 2 2 2 3 3 3 3 3 2 2 3 3 2 2 2 2 2 2 2 3 3 3 3 4 4 6 7 9 8 8 9 7 5 5 5 5 4 4
5 3 2 3 4 3 3 3 3 3 3 3 3 4 4 4 3 3 3 3 2 2 3 2 2 2 2 2 2 2 3 4 6 8 6 8 6 3 7 5 5 4 3
8 4 4 4 3 3 3 3 3 3 3 3 3 4 5 5 5 5 4 4 4 3 2 2 3 3 2 2 2 2 2 2 3 5 8 11 4 2 5 5 5 4 5
5 7 7 4 3 3 3 3 3 4 4 4 3 4 6 5 5 5 4 4 4 4 4 3 2 2 2 2 3 2 2 2 2 3 4 5 12 4 3 7 6 6 6
14 12 9 5 4 5 5 4 4 5 5 5 6 6 7 5 6 6 7 5 4 3 3 3 3 3 3 2 2 2 2 3 2 2 2 3 3 7 11 10 6 6 7
9 8 8 9 7 6 5 5 5 5 5 5 5 5 5 5 5 7 8 8 7 7 6 6 4 4 4 5 4 2 2 2 2 3 2 3 3 3 6 0 5 4 5
7 7 5 6 7 6 6 6 6 6 5 4 4 4 5 4 4 4 6 7 5 5 6 8 7 7 6 4 3 5 7 5 4 4 3 2 2 3 3 5 7 2 5
8 8 6 6 5 5 5 4 4 4 4 4 4 4 3 4 2 3 5 5 4 4 5 6 7 7 7 8 7 5 5 4 5 6 5 5 4 2 2 2 2 3 2
6 4 4 4 4 4 4 5 4 3 3 3 3 3 2 3 2 3 5 3 2 3 3 3 4 4 5 5 5 6 6 6 6 5 5 4 3 4 3 4 3 2 2
5 5 4 6 7 8 10 9 6 4 3 4 3 3 3 3 3 4 3 2 3 2 3 3 4 6 4 4 5 5 4 8 8 9 9 10 3 3 4 4 3 4 6
5 6 2 3 3 8 9 8 9 11 12 9 5 5 5 4 3 3 3 2 3 3 2 2 2 2 3 1 7 7 6 5 6 10 9 7 10 8 6 4 5 3 3
4 2 2 5 6 4 5 7 8 11 13 11 14 13 6 5 5 5 4 4 4 3 2 2 4 4 3 3 7 8 0 4 3 0 3 8 10 8 11 9 5 6 4
2 1 7 5 5 5 6 11 15 12 11 11 10 11 12 13 11 8 6 6 5 6 6 6 7 9 11 5 5 2 1 3 -1 -6 -3 1 1 4 5 8 7 10 8
2 4 3 8 5 7 11 13 13 11 10 11 12 12 11 11 11 11 11 11 11 11 12 12 15 12 13 17 18 14 14 10 11 9 8 11 11 5 1 2 5 9 9
3 7 1 5 6 8 12 17 13 13 12 11 12 12 12 12 12 12 11 11 11 11 10 10 10 9 9 9 10 9 10 10 12 10 12 9 12 14 11 7 6 6 6
2 8 -4 8 7 7 8 14 12 10 10 9 10 9 10 10 10 10 11 11 11 10 10 9 9 10 9 9 10 10 10 10 9 10 9 9 13 15 9 7 5 5 6
5 6 -1 7 7 4 8 15 14 13 12 12 12 12 11 11 11 11 11 12 12 11 11 10 10 9 9 10 10 11 10 9 9 10 10 10 10 11 14 9 8 7 10
6 5 1 8 6 4 12 6 10 11 11 11 12 13 13 13 13 11 10 9 9 9 9 8 8 8 7 6 6 7 8 8 8 10 11 9 9 11 11 14 10 9 10
6 4 -0 3 8 3 7 6 7 9 10 10 10 9 9 9 8 8 8 10 10 9 7 6 5 4 5 5 4 3 7 7 8 8 11 13 11 15 15 10 9 8 7
5 4 -1 4 7 5 5 5 7 10 12 10 9 9 9 10 10 9 7 5 5 6 6 6 7 7 7 8 7 8 8 9 9 10 11 11 11 8 11 14 12 9 6
5 5 -1 3 5 7 6 7 6 8 9 8 9 10 9 8 6 5 5 6 6 5 6 6 5 6 8 10 10 9 11 8 9 13 12 12 11 9 12 14 11 10 7
0 2 1 2 5 9 7 7 5 7 9 10 8 7 4 5 5 7 8 5 4 3 5 6 8 7 8 7 9 10 9 10 10 8 9 12 12 13 8 10 13 7 12
3 1 -0 -0 4 12 7 8 5 5 7 6 7 8 8 7 8 6 5 4 5 7 8 7 8 8 9 10 9 7 12 14 15 15 14 7 18 15 13 10 9 11 10
2 2 3 1 4 12 9 9 5 5 4 5 6 5 6 8 7 6 6 7 7 8 7 8 8 9 10 10 11 13 13 12 19 19 19 17 7 18 16 15 10 8 7
Height
3188 3189 3189 3189 3189 3191 3192 3192 3194 3194 3194 3194 3194 3194 3194 3193 3193 3193 3192 3192 3192 3191 3191 3191 3191 3191 3190 3189 3189 3189 3188 3188 3188 3187 3187 3186 3186 3186 3186 3186 3187 3187 3188
3187 3188 3189 3189 3189 3190 3191 3193 3193 3194 3194 3194 3194 3194 3194 3194 3194 3193 3193 3193 3192 3192 3191 3191 3191 3190 3190 3189 3189 3189 3189 3189 3189 3189 3188 3187 3187 3187 3186 3186 3187 3187 3188
3184 3185 3186 3187 3188 3188 3189 3190 3192 3192 3193 3194 3194 3194 3194 3193 3194 3193 3193 3193 3192 3192 3191 3191 3191 3190 3189 3189 3189 3189 3189 3189 3189 3189 3188 3188 3188 3187 3188 3187 3187 3187 3188
3182 3183 3185 3186 3188 3189 3189 3190 3190 3191 3192 3193 3193 3193 3193 3193 3193 3193 3193 3193 3192 3192 3191 3191 3191 3190 3190 3189 3188 3188 3189 3189 3189 3189 3188 3188 3188 3188 3188 3187 3188 3187 3188
3182 3183 3185 3186 3187 3189 3189 3189 3190 3190 3190 3190 3191 3192 3192 3193 3192 3192 3192 3192 3191 3191 3191 3191 3191 3190 3189 3189 3188 3189 3189 3189 3189 3189 3189 3188 3188 3188 3188 3188 3187 3187 3188
3182 3183 3185 3186 3187 3188 3189 3189 3189 3190 3190 3191 3190 3190 3189 3190 3190 3190 3190 3190 3190 3190 3190 3189 3189 3188 3188 3188 3188 3188 3188 3188 3188 3188 3188 3188 3188 3188 3188 3188 3188 3188 3188
3181 3182 3184 3185 3186 3187 3188 3188 3188 3188 3188 3189 3189 3189 3189 3189 3188 3188 3188 3188 3187 3187 3187 3187 3187 3187 3186 3186 3186 3186 3186 3187 3187 3187 3187 3187 3186 3187 3187 3187 3187 3187 3187
3180 3181 3182 3183 3185 3185 3186 3186 3187 3187 3187 3186 3186 3187 3187 3187 3187 3187 3186 3186 3186 3186 3185 3185 3185 3185 3184 3183 3183 3183 3184 3184 3184 3184 3185 3185 3185 3185 3185 3185 3185 3185 3185
3177 3179 3180 3181 3182 3183 3184 3185 3185 3185 3185 3184 3184 3184 3184 3184 3184 3184 3184 3183 3184 3184 3184 3183 3183 3183 3183 3183 3182 3182 3182 3182 3182 3182 3182 3183 3183 3182 3182 3183 3183 3183 3183
3175 3177 3178 3179 3180 3181 3182 3182 3183 3182 3182 3181 3181 3181 3181 3181 3181 3180 3181 3180 3181 3181 3181 3180 3180 3180 3180 3180 3180 3180 3179 3180 3180 3180 3180 3180 3181 3180 3179 3179 3179 3180 3180
3174 3175 3175 3176 3177 3178 3178 3178 3178 3178 3178 3177 3177 3177 3176 3176 3176 3176 3176 3177 3177 3177 3177 3177 3176 3176 3176 3176 3176 3176 3176 3176 3176 3176 3177 3177 3176 3177 3178 3178 3177 3176 3177
3171 3172 3173 3174 3174 3174 3174 3174 3173 3173 3172 3172 3171 3171 3171 3171 3171 3171 3171 3172 3172 3172 3172 3172 3172 3172 3171 3172 3172 3172 3172 3172 3171 3172 3172 3173 3171 3171 3172 3173 3174 3174 3173
3167 3168 3169 3170 3170 3169 3168 3168 3167 3167 3166 3166 3166 3165 3166 3165 3166 3165 3166 3166 3166 3166 3166 3166 3166 3167 3166 3166 3166 3166 3166 3166 3166 3166 3167 3167 3166 3166 3166 3166 3167 3169 3169
3163 3164 3165 3164 3164 3163 3162 3162 3161 3160 3159 3159 3159 3159 3159 3159 3159 3159 3159 3159 3159 3160 3160 3159 3160 3160 3159 3160 3160 3160 3160 3160 3159 3160 3160 3161 3161 3161 3160 3160 3160 3161 3163
3159 3159 3159 3160 3160 3158 3156 3155 3154 3153 3153 3152 3152 3152 3152 3152 3152 3152 3152 3152 3152 3153 3153 3152 3152 3153 3153 3153 3152 3153 3153 3153 3153 3152 3153 3154 3154 3154 3154 3153 3154 3154 3153
3154 3154 3154 3154 3153 3152 3151 3149 3147 3146 3146 3146 3146 3146 3146 3146 3146 3146 3145 3146 3146 3145 3145 3145 3145 3145 3145 3145 3145 3145 3145 3145 3145 3144 3143 3143 3145 3146 3146 3146 3146 3146 3145
3149 3149 3150 3149 3149 3148 3146 3144 3142 3141 3141 3140 3140 3140 3140 3140 3139 3139 3139 3139 3139 3138 3138 3138 3137 3137 3137 3137 3137 3136 3136 3135 3134 3133 3132 3132 3132 3135 3136 3137 3137 3136 3136
3144 3145 3145 3145 3144 3143 3141 3139 3137 3136 3135 3135 3134 3134 3134 3134 3133 3133 3133 3134 3133 3133 3132 3132 3132 3131 3131 3131 3131 3129 3128 3126 3125 3124 3124 3122 3122 3123 3126 3127 3127 3127 3126
3137 3138 3140 3140 3140 3138 3136 3134 3132 3131 3130 3130 3130 3129 3129 3129 3128 3128 3128 3128 3127 3127 3127 3126 3126 3125 3125 3124 3124 3123 3121 3119 3117 3115 3114 3113 3112 3113 3114 3116 3117 3118 3119
3131 3133 3134 3135 3135 3134 3132 3130 3128 3127 3126 3125 3125 3125 3125 3124 3124 3124 3124 3124 3123 3123 3122 3121 3120 3119 3118 3118 3117 3116 3115 3113 3111 3109 3107 3105 3103 3103 3104 3104 3105 3107 3109
3124 3126 3128 3130 3130 3130 3128 3126 3125 3124 3122 3122 3122 3121 3121 3121 3121 3120 3120 3119 3118 3118 3117 3115 3114 3112 3110 3109 3108 3108 3106 3105 3102 3101 3099 3097 3093 3091 3092 3093 3094 3096 3097
3117 3119 3121 3123 3124 3124 3122 3121 3121 3119 3119 3118 3118 3118 3117 3116 3116 3115 3114 3114 3112 3111 3110 3108 3106 3105 3103 3101 3100 3098 3098 3098 3094 3092 3089 3088 3086 3084 3083 3084 3084 3085 3086
3110 3112 3114 3116 3117 3118 3117 3116 3116 3115 3115 3115 3114 3113 3112 3111 3111 3110 3109 3108 3106 3105 3103 3101 3099 3098 3096 3094 3090 3090 3086 3083 3083 3080 3079 3077 3075 3075 3074 3074 3075 3075 3075
3104 3105 3107 3108 3110 3111 3111 3111 3111 3111 3111 3110 3110 3109 3108 3107 3106 3105 3104 3102 3100 3098 3096 3094 3092 3090 3088 3087 3085 3081 3077 3074 3070 3069 3070 3066 3064 3063 3063 3064 3065 3065 3065
3095 3097 3099 3101 3102 3103 3104 3105 3105 3104 3105 3105 3104 3103 3103 3102 3101 3099 3097 3095 3093 3091 3089 3088 3086 3084 3082 3079 3076 3074 3071 3066 3061 3057 3055 3058 3056 3053 3053 3054 3054 3053 3055
3086 3088 3090 3092 3094 3096 3098 3099 3099 3098 3098 3098 3098 3098 3098 3096 3094 3093 3091 3089 3086 3085 3084 3082 3080 3076 3073 3069 3066 3061 3059 3057 3054 3049 3046 3044 3043 3045 3043 3040 3042 3042 3043